User: anonymous   Login
Location: Irma
(52.9170°N, 111.2330°W)
Time: 22:06:22
(UTC-06:00)
Language:

deb Chang Zheng 4 - Orbit

View from above orbital plane
View from above orbital plane
View from above satellite
View from above satellite

Ground track
Ground track

The orbit data is extracted from the following two-line orbital elements,

1 20847U 90081K   15210.61700198  .00004102  00000-0  61381-3 0  9999
2 20847 098.5815 040.7165 0020532 095.4519 305.2240 14.75158449304086
Epoch (UTC): 29 July 2015 14:48:28
Eccentricity: 0.0020532
inclination: 98.5815°
perigee height: 630 km
apogee height: 659 km
right ascension of ascending node: 40.7165°
argument of perigee: 95.4519°
revolutions per day: 14.75158449
mean anomaly at epoch: 305.2240°
orbit number at epoch: 30408

The dashed part of the orbit path shows where the satellite is in the earth's shadow,  

DLR